Date,TemperatureHighF,TemperatureAvgF,TemperatureLowF,DewpointHighF,DewpointAvgF,DewpointLowF,HumidityHigh,HumidityAvg,HumidityLow,PressureMaxIn,PressureMinIn,WindSpeedMaxMPH,WindSpeedAvgMPH,GustSpeedMaxMPH,PrecipitationSumIn
2013-4-1,34.3,24.7,15.6,16.1,10.9,6.6,68,56,44,30.22,30.07,26,9,26,0.00
2013-4-2,36.6,26.1,14.7,17.3,11.9,7.6,74,56,39,30.34,30.21,23,3,23,0.00
2013-4-3,46.0,30.6,11.1,27.5,17.9,4.9,79,61,41,30.38,30.01,21,4,24,0.00
2013-4-4,46.9,40.3,29.8,30.8,25.4,16.9,72,56,38,30.17,29.95,30,8,30,0.00
2013-4-5,48.0,33.9,21.0,26.4,19.0,11.8,75,55,38,30.24,29.94,14,2,14,0.00
2013-4-6,51.8,37.9,33.4,33.1,29.2,25.8,82,71,47,29.94,29.55,21,4,21,0.00
2013-4-7,48.6,39.3,34.2,33.6,30.3,28.2,81,71,55,29.94,29.73,14,1,14,0.25
2013-4-8,45.0,38.6,35.8,37.5,33.3,30.2,86,81,74,30.07,29.72,0,0,0,0.00
2013-4-9,45.1,37.4,33.1,31.9,26.4,20.2,81,65,48,30.19,30.01,0,0,0,0.00
2013-4-10,41.7,36.0,31.1,22.9,19.8,17.0,62,52,40,30.20,29.96,0,0,0,0.00
2013-4-11,35.6,32.0,28.6,27.1,22.4,16.2,82,69,47,29.98,29.73,0,0,0,0.00
2013-4-12,43.3,32.2,27.5,29.3,24.0,21.6,83,72,53,29.84,29.69,0,0,0,0.00
2013-4-13,43.8,32.0,20.5,24.3,20.4,13.8,82,64,40,29.96,29.82,0,0,0,0.00
2013-4-14,39.9,28.6,18.7,36.7,22.7,13.1,89,79,56,29.97,29.52,14,1,14,0.00
2013-4-15,42.2,35.8,31.8,38.0,32.2,28.9,89,87,83,29.92,29.51,31,2,21,0.00
2013-4-16,49.3,39.9,27.1,36.2,29.0,21.1,83,66,45,30.32,29.93,16,3,16,0.00
2013-4-17,41.2,35.2,26.2,28.8,26.0,20.6,85,70,59,30.34,29.95,25,4,25,0.00
2013-4-18,33.8,31.7,29.8,28.9,27.5,25.9,87,84,77,29.96,29.49,0,0,0,0.00
2013-4-19,39.1,32.9,27.7,27.3,22.0,9.6,87,66,45,29.91,29.47,12,2,19,0.00
2013-4-20,43.7,31.2,16.0,19.1,9.9,1.8,55,42,22,30.24,29.91,5,1,9,0.00
2013-4-21,45.9,37.2,26.2,41.9,30.1,11.0,98,77,51,30.24,29.97,7,2,13,0.08
2013-4-22,47.0,38.4,32.5,39.9,30.2,22.8,98,76,44,30.18,30.06,8,3,18,1.36
2013-4-23,44.1,36.1,29.3,32.0,23.6,13.9,98,64,35,30.12,30.00,10,5,21,0.37
2013-4-24,49.6,36.3,26.4,34.1,27.4,17.3,89,71,42,30.03,29.85,11,4,24,0.00
2013-4-25,53.1,40.6,30.4,31.7,27.9,20.3,95,64,39,30.15,29.91,8,4,18,0.04
2013-4-26,69.6,54.0,37.8,44.3,36.6,27.3,78,54,32,30.09,29.94,11,5,22,0.00
2013-4-27,77.7,56.6,33.1,45.0,35.8,28.4,86,52,21,30.12,29.85,9,3,21,0.00
2013-4-28,82.2,63.5,46.4,56.8,47.1,41.5,86,58,32,29.85,29.65,16,7,38,0.04
2013-4-29,79.3,61.0,45.5,48.1,40.8,31.0,74,50,26,29.83,29.56,10,5,22,0.00
2013-4-30,72.3,63.3,55.0,59.8,44.5,15.7,88,55,15,29.91,29.41,19,10,42,0.00